Theta_e
298 298 298 298 298 298 299 299 300 301 301 301 301 301 301 301 302 304 306 308 309 312 322 332 331 330 330 331 330 330 329 327 326 324 318 317 316 315
298 298 298 298 298 298 299 299 299 301 302 301 301 301 301 301 302 304 306 306 310 310 318 331 331 329 329 330 329 330 329 327 324 321 316 316 314 313
298 298 298 299 298 299 299 299 300 301 302 301 301 300 301 302 302 304 307 308 310 311 321 330 331 329 329 330 329 331 329 326 323 318 316 315 313 312
298 298 299 299 299 300 299 299 300 301 302 302 301 301 302 304 304 305 307 309 311 314 324 328 331 328 330 329 330 331 328 326 323 316 316 314 312 309
299 299 300 300 300 300 300 299 301 302 303 303 304 305 305 306 306 308 310 311 310 319 327 331 330 328 329 329 330 330 327 325 322 313 313 311 307 306
300 300 300 300 300 300 301 301 303 304 303 304 305 308 306 307 309 309 310 310 314 325 328 330 330 328 328 329 329 328 326 324 320 311 308 304 305 305
300 299 299 300 302 302 302 303 303 303 304 305 309 309 308 310 310 310 311 312 317 328 330 329 329 328 328 329 328 327 325 323 315 307 305 303 303 305
297 298 298 299 299 301 302 302 302 304 306 308 310 311 311 310 310 310 310 312 327 329 329 328 328 327 328 327 327 326 325 320 309 304 304 302 303 304
297 298 298 298 300 300 300 301 302 305 307 309 311 312 310 310 311 313 313 314 326 328 328 327 326 324 325 327 326 326 322 317 305 303 303 302 304 304
297 298 298 299 300 300 300 302 304 305 306 309 311 312 312 311 313 314 315 315 326 327 326 325 323 320 323 326 325 324 319 314 304 303 302 303 304 306
298 298 298 299 298 300 301 304 305 304 305 308 309 313 313 313 314 315 317 322 325 324 324 321 317 316 318 321 321 321 316 312 304 302 302 303 304 306
297 297 297 298 299 300 302 305 303 304 307 307 309 315 315 314 314 315 317 324 324 323 321 317 316 316 311 314 317 315 313 311 303 302 302 303 304 305
298 298 298 298 299 301 303 303 304 306 305 305 310 316 315 315 315 316 318 323 322 319 319 317 318 315 313 311 312 312 312 309 303 302 302 303 304 305
299 299 299 299 300 302 302 303 304 304 303 305 307 316 316 316 316 316 320 322 321 319 317 319 318 316 311 313 311 309 310 308 304 302 302 302 303 305
300 300 299 299 300 300 302 303 302 301 303 304 305 307 317 317 317 317 319 320 320 320 318 319 318 315 315 314 310 309 307 306 304 302 302 302 303 305
299 298 298 298 299 300 301 301 300 301 302 304 305 306 316 318 317 318 319 318 316 315 315 316 316 316 313 312 310 307 308 306 304 302 302 302 303 306
299 297 296 297 297 299 301 300 299 300 301 302 304 309 318 318 318 320 319 317 316 314 312 312 314 313 313 312 308 308 307 307 306 303 302 302 304 306
299 296 295 296 297 299 300 300 299 300 301 302 304 309 319 318 319 321 319 317 315 314 312 310 310 309 309 308 310 307 306 306 306 304 302 303 304 306
296 295 295 295 296 298 300 300 299 299 300 302 304 308 319 319 319 321 319 317 315 313 311 310 309 310 310 309 307 308 307 306 306 303 302 303 304 305
295 295 295 295 296 298 300 299 298 299 300 302 304 309 319 320 321 322 319 317 315 313 310 310 310 310 311 310 305 306 307 306 305 302 302 303 304 305
295 295 295 295 296 298 300 299 298 299 300 301 304 306 314 320 322 321 319 317 315 312 311 311 311 311 311 309 307 305 305 306 308 306 303 303 303 304
295 295 295 295 297 298 299 298 298 299 299 300 302 304 307 321 322 321 319 317 315 313 312 312 311 311 310 311 306 303 303 304 304 305 305 306 305 302
295 295 295 296 297 298 299 298 298 299 299 300 301 303 304 320 323 322 319 317 314 314 313 309 310 310 310 308 305 303 303 303 303 303 304 306 306 308
Wind_Speed
25 26 27 28 30 30 31 27 18 15 17 28 32 30 32 33 35 34 27 28 26 28 23 43 47 41 37 34 31 29 26 23 21 18 16 14 11 8
26 26 27 29 29 29 30 30 26 25 18 30 33 35 36 34 32 30 30 25 33 27 24 40 49 42 38 35 31 30 29 23 21 19 16 14 11 8
25 27 28 27 27 28 30 32 28 28 18 37 35 38 35 32 35 29 27 30 27 33 26 33 48 42 39 36 33 32 29 24 23 19 17 15 11 8
25 25 28 27 29 31 32 31 29 31 31 23 35 40 35 33 30 30 26 27 28 32 26 38 48 42 39 37 34 31 28 26 25 20 17 15 11 8
26 28 28 29 31 32 32 30 29 31 29 29 35 34 30 26 29 29 25 31 35 24 35 46 49 43 40 38 34 30 27 27 24 22 19 16 12 9
26 28 28 28 30 29 32 30 27 28 34 32 33 25 20 22 23 19 18 22 29 24 40 47 50 44 41 38 34 30 27 26 24 22 19 15 12 7
25 22 24 24 23 26 28 29 29 33 33 34 29 13 17 11 13 14 9 16 23 30 36 40 44 45 42 38 34 30 28 26 24 22 19 15 11 8
23 25 28 26 25 23 27 30 33 35 36 31 25 11 15 16 15 13 9 14 7 33 34 34 41 37 42 40 35 31 28 27 24 21 19 15 12 9
26 28 29 25 24 26 29 31 35 36 38 36 22 15 16 20 15 9 18 17 14 36 38 26 39 32 39 39 35 31 28 26 25 21 19 16 13 10
26 26 26 26 24 26 31 32 35 36 34 33 29 20 21 18 12 15 14 23 29 36 38 15 33 27 37 36 33 30 28 26 25 21 19 16 13 12
24 24 25 25 26 27 29 30 30 34 34 34 34 21 18 17 9 11 10 17 16 29 33 23 22 27 25 33 32 29 27 26 25 22 20 17 14 13
23 24 25 24 27 27 29 24 29 30 32 35 35 10 18 19 17 16 10 19 23 16 29 13 31 20 7 20 32 30 27 24 23 22 20 18 16 14
19 21 24 26 29 28 27 25 28 33 29 27 22 17 19 18 16 14 19 28 26 10 32 28 30 19 11 11 20 31 30 28 25 22 19 18 15 12
22 24 27 29 30 28 26 25 29 28 24 21 19 15 21 19 18 15 18 25 25 31 29 36 31 27 14 15 12 27 29 28 26 24 22 19 15 13
21 21 27 27 26 27 21 25 27 25 23 20 18 18 21 20 22 18 16 29 25 37 38 42 41 33 29 19 19 22 30 28 27 26 24 22 19 16
17 20 24 25 24 22 23 19 24 23 23 21 19 24 16 22 20 22 20 29 29 27 29 31 36 42 23 27 28 29 27 18 32 27 24 21 18 16
16 20 24 25 20 21 21 21 26 23 24 22 21 20 20 21 20 26 24 31 22 27 23 24 31 33 32 35 20 27 37 24 32 31 27 23 19 17
13 17 20 21 18 19 20 23 26 25 24 24 22 20 23 24 23 29 27 30 26 27 27 31 33 27 28 14 20 31 29 28 30 37 30 25 21 20
10 15 19 21 20 20 18 19 26 27 29 25 24 20 22 24 27 32 29 29 28 30 28 34 34 29 12 8 13 34 38 35 34 38 33 28 22 23
12 15 18 21 21 19 20 20 27 28 29 28 25 18 14 23 22 30 29 30 29 28 27 29 32 29 24 13 9 23 27 39 38 32 32 26 16 18
14 17 20 19 22 20 18 20 25 26 29 26 22 20 11 23 29 25 33 34 33 29 26 27 30 29 25 23 14 19 26 29 43 42 40 30 17 18
15 16 20 20 23 20 17 19 24 25 26 26 22 22 23 22 30 33 31 32 31 31 28 28 31 31 29 19 16 24 25 27 25 32 37 30 18 14
16 17 19 21 23 20 19 19 23 25 26 27 27 24 24 17 21 35 36 35 32 31 31 28 30 29 21 26 29 26 26 31 32 29 27 22 13 5
Wind_Direction
303 299 294 292 291 290 287 272 262 291 292 300 292 289 280 278 276 275 259 257 260 275 257 212 204 200 196 193 193 195 195 198 198 189 184 186 182 187
302 300 298 296 294 292 289 277 256 257 283 291 288 288 284 273 268 264 266 268 258 280 253 211 202 199 196 193 192 192 193 198 193 186 180 185 182 183
305 301 299 301 295 294 289 280 259 255 266 285 283 284 278 272 267 266 244 239 257 279 236 208 200 197 194 190 189 189 190 196 194 185 178 186 183 184
306 302 299 302 296 296 290 273 264 267 267 276 284 281 270 261 249 258 250 235 271 271 226 209 199 194 190 187 186 186 189 197 197 186 179 184 186 184
303 301 301 301 298 297 293 278 274 274 275 284 287 280 258 249 245 232 209 217 272 259 205 197 197 190 187 186 183 183 192 197 197 187 186 185 187 191
304 302 303 304 302 302 296 285 284 289 295 289 284 274 235 241 236 208 196 245 268 218 195 190 190 187 186 184 180 184 194 196 195 189 191 188 189 193
309 317 316 313 299 302 302 303 307 301 297 295 297 248 223 220 218 199 202 263 278 177 172 172 176 182 183 183 179 188 191 195 194 190 191 189 193 184
321 321 317 311 304 301 303 302 303 297 293 297 296 214 203 212 220 206 255 257 193 167 159 160 168 168 175 180 178 184 190 191 192 189 192 191 187 182
319 312 312 315 311 317 315 306 303 304 305 305 297 258 206 214 208 194 215 240 188 163 159 150 161 158 171 179 178 180 187 188 189 189 193 192 182 179
312 310 316 317 314 316 314 308 309 309 315 315 316 285 238 232 210 200 228 249 144 151 152 137 146 145 171 178 180 181 185 186 188 189 193 189 180 172
313 315 314 313 317 319 316 308 308 317 320 320 312 278 238 238 237 231 260 213 137 141 150 131 132 128 152 171 177 183 184 186 188 189 190 188 182 174
314 313 316 314 316 319 317 320 322 312 317 321 318 253 213 221 233 249 253 156 139 138 154 124 139 133 103 157 174 181 181 188 189 191 190 190 187 186
305 307 315 317 318 319 320 326 315 319 321 317 312 246 221 227 227 231 222 162 152 124 158 139 156 136 107 132 162 180 183 182 189 191 191 195 196 192
301 308 318 318 318 320 320 321 329 329 321 318 316 200 199 216 225 226 199 160 162 152 155 166 163 161 132 153 149 177 184 189 190 190 191 196 200 198
309 315 315 317 320 321 319 326 331 327 319 318 315 308 213 201 214 205 171 157 157 166 167 176 169 174 164 165 149 164 170 187 194 194 193 199 199 195
317 326 323 321 327 324 320 326 328 323 317 307 295 293 228 178 181 187 156 156 145 159 174 171 167 174 157 158 157 158 177 173 192 195 198 199 199 199
321 330 329 332 325 324 321 333 332 324 322 315 307 297 190 179 182 177 169 158 155 155 152 155 170 174 180 169 156 170 173 175 189 190 193 196 197 198
312 329 326 322 317 317 322 331 329 325 326 317 315 303 176 176 182 177 166 161 153 156 152 155 154 142 143 156 197 169 175 176 181 189 191 194 195 196
316 324 322 317 314 312 319 330 325 322 323 327 315 311 183 186 186 175 160 156 157 157 161 161 165 167 169 159 167 199 175 183 181 183 193 197 203 199
313 313 317 319 319 313 315 330 327 325 328 327 321 307 215 180 189 167 161 159 159 158 160 169 174 180 179 171 151 182 192 179 180 172 181 193 206 198
304 307 319 317 325 317 309 326 326 324 323 320 316 322 301 195 181 159 163 165 159 158 164 173 180 179 180 151 126 152 180 206 201 183 183 182 173 188
300 309 317 315 324 321 315 328 326 322 322 323 321 329 327 203 175 160 162 162 163 164 165 164 175 179 164 167 146 148 162 176 182 189 191 180 181 190
313 314 312 317 323 324 325 324 326 320 320 323 327 325 320 222 178 168 162 165 162 160 158 151 164 169 168 156 149 150 158 161 167 171 180 189 181 191